阿斯特拉 1M星 (ASTRA 1M)

导读

ASTRA 1M也叫阿斯特拉1M,属于阿斯特拉卫星系列,由卢森堡SES公司运营,于2008年11月5日在哈萨克斯坦拜科努尔航天发射场发射升空,由阿斯特里姆公司研制,任务类型为通信卫星,运行在地球静止轨道,卫星发射质量为5320千克,设计寿命15年,承担欧洲地区电视广播等通信传输任务。

基本信息
目录编号:
33436
目录名称:
ASTRA 1M
国际标识:
2008-057A
轨道中心:
EARTH
卫星名称:
阿斯特拉 1M星
卫星全名:
阿斯特拉 1M星 (ASTRA 1M)
卫星状态:
在轨 (已飞行6428 天)
发射日期:
2008-11-05 UTC
国别 :
(SES)
星等 :
--
轨道信息
数据来源 国际轨道数据 AOE轨道数据
星历时间 2026-06-12T14:26:48+0800
12小时前
查看轨道信息
2026-06-12T12:00:00+0800
14小时前
查看轨道信息
半长轴 42165.373km 42165.429km
偏心率 0.0004644 0.0004605
轨道倾角 0.283° 0.283°
近地点辐角 21.780° 20.456°
升交点赤经 82.375° 82.352°
平近点角 272.521° 237.067°
近地点 35767.654km 35767.874km
远地点 35806.818km 35806.71km
周期 1436.130分钟 1436.132分钟
每日圈数 1.002695 1.002693
详细信息
卫星平台:
Eurostar E3000
平衡模式:
三轴稳定
覆盖范围:
全球
运营商:
欧洲卫星公司
运营商所在国:
卢森堡
制造商(研发单位):
阿斯特里姆
制造商所在国:
法国大都会
使用方式:
暂无
卫星简介
阿斯特拉卫星是由SES阿斯特拉运营的商业通信卫星,主要提供电视直播到户业务。Astra卫星包括三个系列共19颗卫星,分别定点在三个不同轨位:Astra-1系列包括十三颗卫星,定点东经19.2度;Astra-2系列包括4颗卫星,定点东经28.2度;Astra-3系列包括2颗卫星,定点东经23.5度。该卫星仍在工作。
2D轨道图
3D轨道图
轨道高度分析图
轨道倾角分析图
轨道综合分析图
查看轨道综合分析图